[Iaude] MPEC C124: 2024 CO2 [a=1.27,e=0.31,i=13.8,H=26.8]

mpec at cfa.harvard.edu mpec at cfa.harvard.edu
Sun Feb 11 22:28:12 EST 2024


M.P.E.C. 2024-C124                            Issued 2024 February 12, 03:26 UT

     The Minor Planet Electronic Circulars contain information on unusual
         minor planets, routine data on comets and natural satellites,
         and occasional editorial announcements.  They are published
    on behalf of Division F of the International Astronomical Union by the
          Minor Planet Center, Smithsonian Astrophysical Observatory,
                          Cambridge, MA 02138, U.S.A.
			  
             Prepared using the Tamkin Foundation Computer Network

                              MPC at CFA.HARVARD.EDU
            URL https://www.minorplanetcenter.net/    ISSN 1523-6714

                                    2024 CO2                                    


Observations:
     K24C02O* C2024 02 10.97006209 49 35.986-22 55 00.77         18.99oVEC124M22
     K24C02O  C2024 02 10.97345609 49 30.461-22 55 52.75         19.07oVEC124M22
     K24C02O  C2024 02 10.97882809 49 21.514-22 57 15.59         19.19oVEC124M22
     K24C02O  C2024 02 11.01134209 48 28.747-23 05 21.66         19.10oVEC124M22
     K24C02O  C2024 02 11.08912 09 46 29.89 -23 23 19.2          19.3 GVEC124M28
     K24C02O  C2024 02 11.09119 09 46 26.98 -23 23 45.0          19.2 GVEC124M28
     K24C02O  C2024 02 11.09324 09 46 24.09 -23 24 12.4          19.3 GVEC124M28
     K24C02O  C2024 02 11.13016509 46 23.46 -23 33 37.8                WEC124X09
     K24C02O  C2024 02 11.13253409 46 19.93 -23 34 11.9                WEC124X09
     K24C02O |C2024 02 11.24141009 43 44.060-23 58 04.40         19.1 GVEC124807
     K24C02O |C2024 02 11.24412009 43 40.330-23 58 37.10         19.1 GVEC124807
     K24C02O |C2024 02 11.24688009 43 36.530-23 59 10.20         19.1 GVEC124807
     K24C02O KB2024 02 12.10747109 31 09.587-26 10 19.80         20.1 VZEC124Y05
     K24C02O KB2024 02 12.11663409 31 01.605-26 11 20.48         19.1 VZEC124Y05
     K24C02O KB2024 02 12.12565909 30 53.921-26 12 19.52         18.7 VZEC124Y05

Observer details:
807 Cerro Tololo Observatory, La Serena.  Observers T. Linder, R. Holmes.
    0.61-m f/11 Ritchey-Chretien + CCD.
M22 ATLAS South Africa, Sutherland.  Observers L. Denneau, R. Siverd, J.
    Tonry, H. Weiland.  Measurers L. Denneau, N. Erasmus, A. Fitzsimmons, A.
    Lawrence, J. Robinson, R. Siverd, J. Tonry, H. Weiland.  0.5-m Reflector +
    CCD.
M28 Lesedi Telescope-SAAO Observatory, Sutherland.  Observers N. Erasmus, S.
    Potter, C. van Gend, S. Chandra, H. Worters.  Measurers T. Ngwane, N.
    Erasmus.  1.0-m f/8 Reflector + CCD.
X09 Deep Random Survey, Rio Hurtado.  Observers A. Schnabel, D. Ruhela.
    Measurer S. Deen.  0.43-m reflector + CMOS.
Y05 SONEAR Wykrota-CEAMIG, Serra da Piedade.  Observer C. Jacques.  0.45-m
    f/2.9 reflector + CMO.

Orbital elements:
2024 CO2                                                 Earth MOID = 0.0018 AU
Epoch 2023 Sept. 13.0 TT = JDT 2460200.5                MPC                     
M 289.82411              (2000.0)            P               Q                  
n   0.68545649     Peri.  120.58317     +0.15049239     -0.97653248             
a   1.2739414      Node   319.82874     +0.80541189     +0.21147832             
e   0.3137824      Incl.   13.81777     +0.57329200     -0.04075837             
P   1.44           H   26.81          G   0.15           U   8                  
Residuals in seconds of arc
240210 M22  0.9-  0.5-    240211 M28  0.1+  0.5+    240211 807  0.0   0.0
240210 M22  0.7+  0.0     240211 M28  0.9+  0.2-    240211 807  0.1-  0.1+
240210 M22  0.0   0.1-    240211 X09  1.0+  0.5+    240212 Y05  0.8+  0.8-
240211 M22  1.6+  0.6+    240211 X09  0.2+  0.0     240212 Y05  0.5-  0.1-
240211 M28  1.0-  0.8-    240211 807  0.0   0.0     240212 Y05  0.2+  0.3+

Ephemeris:
2024 CO2                 a,e,i = 1.27, 0.31, 14                  q = 0.8742
Date    TT    R. A. (2000) Decl.     Delta      r    Elong.  Phase     V
2024 01 13    20 47 29.6 +29 23 19   0.1637  0.8970    54.0   117.6    27.3
...
2024 01 28    20 41 53.0 +32 54 59   0.07196 0.9415    51.4   125.2    26.2
...
2024 02 05    20 13 58.9 +36 28 26   0.02339 0.9724    54.4   124.5    23.8
...
2024 02 11    09 48 57.3 -23 04 08   0.01404 0.9980   142.4    37.1    19.0
2024 02 12    09 32 21.3 -25 57 10   0.01999 1.0024   140.0    39.3    19.9
2024 02 13    09 23 05.1 -27 26 13   0.02602 1.0069   138.6    40.4    20.5
...
2024 02 19    09 05 04.2 -29 52 35   0.06264 1.0343   135.9    41.7    22.5
...
2024 02 27    09 00 59.1 -29 53 26   0.1122  1.0724   135.0    40.7    23.8
...
2024 03 13    09 05 21.3 -28 03 04   0.2087  1.1464   132.9    39.4    25.3

A. U. Tomatic                (C) Copyright 2024 MPC           M.P.E.C. 2024-C124





More information about the Iaude mailing list